| time (UTC) | temp F | wind direction | speed knots | gust knots | rain 1hr in | rain 24hr in | rain mn in | humidity % | barometer mb |
| 20260502200011 | 61 | 216 | 8.7 | 19.1 | 0.00 | 0.00 | 0.00 | 34 | 1012.7 |
| 20260502194510 | 62 | 242 | 7.8 | 14.8 | 0.00 | 0.00 | 0.00 | 33 | 1012.9 |
| 20260502193008 | 61 | 202 | 7.8 | 17.4 | 0.00 | 0.00 | 0.00 | 35 | 1013.1 |
| 20260502191511 | 62 | 189 | 8.7 | 16.5 | 0.00 | 0.00 | 0.00 | 33 | 1013.5 |
| 20260502190005 | 60 | 178 | 8.7 | 20.0 | 0.00 | 0.00 | 0.00 | 35 | 1013.8 |
| 20260502184600 | 60 | 193 | 8.7 | 13.9 | 0.00 | 0.00 | 0.00 | 36 | 1014.2 |
| 20260502183058 | 58 | 192 | 6.1 | 15.6 | 0.00 | 0.00 | 0.00 | 36 | 1014.3 |
| 20260502181556 | 59 | 244 | 8.7 | 18.2 | 0.00 | 0.00 | 0.00 | 34 | 1014.5 |
| 20260502163042 | 55 | 252 | 3.5 | 12.2 | 0.00 | 0.00 | 0.00 | 36 | 1016.4 |
| 20260502161536 | 54 | 233 | 5.2 | 12.2 | 0.00 | 0.00 | 0.00 | 37 | 1016.6 |
| 20260502151535 | 52 | 290 | 3.5 | 10.4 | 0.00 | 0.00 | 0.00 | 41 | 1017.3 |
| 20260502130107 | 39 | 238 | 1.7 | 6.1 | 0.00 | 0.00 | 0.00 | 75 | 1018.2 |
| 20260502123054 | 33 | 244 | 1.7 | 4.3 | 0.00 | 0.00 | 0.00 | 86 | 1018.1 |
| 20260502121539 | 31 | 255 | 0.9 | 4.3 | 0.00 | 0.00 | 0.00 | 86 | 1018.1 |
| 20260502114532 | 28 | 171 | 0.9 | 1.7 | 0.00 | 0.00 | 0.00 | 85 | 1018.0 |
| 20260502113035 | 28 | 171 | 0.9 | 3.5 | 0.00 | 0.00 | 0.00 | 84 | 1018.0 |
| 20260502111534 | 28 | 244 | 1.7 | 3.5 | 0.00 | 0.00 | 0.00 | 83 | 1018.0 |
| 20260502110028 | 28 | 244 | 1.7 | 2.6 | 0.00 | 0.00 | 0.00 | 83 | 1018.0 |
| 20260502104522 | 27 | 244 | 0.9 | 2.6 | 0.00 | 0.00 | 0.00 | 81 | 1017.8 |
| 20260502103022 | 28 | 244 | 1.7 | 2.6 | 0.00 | 0.00 | 0.00 | 81 | 1017.8 |
| 20260502101520 | 28 | 244 | 0.9 | 2.6 | 0.00 | 0.00 | 0.00 | 81 | 1017.8 |
| 20260502091514 | 29 | 244 | 0.0 | 1.7 | 0.00 | 0.00 | 0.00 | 79 | 1017.7 |
| 20260502070055 | 32 | 244 | 0.9 | 1.7 | 0.00 | 0.00 | 0.00 | 74 | 1018.1 |
| 20260502064553 | 32 | 244 | 0.0 | 3.5 | 0.00 | 0.00 | 0.00 | 73 | 1018.0 |
| 20260502063114 | 32 | 244 | 0.0 | 1.7 | 0.00 | 0.00 | 0.00 | 72 | 1018.2 |
| 20260502061553 | 33 | 244 | 0.9 | 3.5 | 0.00 | 0.00 | 0.00 | 72 | 1018.1 |
| 20260502060048 | 33 | 256 | 0.9 | 2.6 | 0.00 | 0.00 | 0.00 | 71 | 1018.0 |
| 20260502054548 | 33 | 256 | 0.9 | 3.5 | 0.00 | 0.00 | 0.00 | 71 | 1018.0 |
| 20260502053054 | 34 | 250 | 0.9 | 3.5 | 0.00 | 0.00 | 0.00 | 70 | 1018.1 |
| 20260502051543 | 34 | 315 | 1.7 | 2.6 | 0.00 | 0.00 | 0.00 | 69 | 1018.1 |
| 20260502050039 | 35 | 315 | 0.9 | 2.6 | 0.00 | 0.00 | 0.00 | 68 | 1018.1 |
| 20260502044536 | 35 | 315 | 0.9 | 2.6 | 0.00 | 0.00 | 0.00 | 67 | 1018.1 |
| 20260502043039 | 36 | 315 | 0.9 | 2.6 | 0.00 | 0.00 | 0.00 | 66 | 1018.1 |
| 20260502041533 | 37 | 315 | 1.7 | 2.6 | 0.00 | 0.00 | 0.00 | 64 | 1018.0 |
| 20260502040033 | 37 | 315 | 0.9 | 1.7 | 0.00 | 0.00 | 0.00 | 63 | 1018.0 |
| 20260502034531 | 38 | 315 | 0.9 | 1.7 | 0.00 | 0.00 | 0.00 | 61 | 1018.0 |
| 20260502033030 | 39 | 315 | 0.0 | 1.7 | 0.00 | 0.00 | 0.00 | 60 | 1018.0 |
| 20260502031531 | 40 | 315 | 0.9 | 1.7 | 0.00 | 0.00 | 0.00 | 57 | 1018.1 |
| 20260502030030 | 42 | 315 | 0.9 | 2.6 | 0.00 | 0.00 | 0.00 | 53 | 1018.1 |
| 20260502024531 | 43 | 315 | 0.0 | 1.7 | 0.00 | 0.00 | 0.00 | 47 | 1018.1 |
| 20260502023034 | 45 | 315 | 0.0 | 2.6 | 0.00 | 0.00 | 0.00 | 42 | 1018.0 |
| 20260502021533 | 46 | 315 | 0.9 | 1.7 | 0.00 | 0.00 | 0.00 | 39 | 1017.9 |
| 20260502020028 | 48 | 315 | 0.0 | 1.7 | 0.00 | 0.00 | 0.00 | 37 | 1017.8 |
| 20260502014527 | 49 | 315 | 1.7 | 3.5 | 0.00 | 0.00 | 0.00 | 34 | 1017.7 |
| 20260502013027 | 50 | 309 | 1.7 | 6.1 | 0.00 | 0.00 | 0.00 | 33 | 1017.5 |
| 20260502011527 | 50 | 307 | 2.6 | 7.0 | 0.00 | 0.00 | 0.00 | 31 | 1017.5 |
| 20260502010026 | 51 | 330 | 2.6 | 8.7 | 0.00 | 0.00 | 0.00 | 30 | 1017.4 |
| 20260502004526 | 51 | 306 | 2.6 | 7.8 | 0.00 | 0.00 | 0.00 | 30 | 1017.2 |
| 20260502003025 | 52 | 327 | 3.5 | 12.2 | 0.00 | 0.00 | 0.00 | 29 | 1017.3 |
| 20260502001526 | 53 | 15 | 6.1 | 11.3 | 0.00 | 0.00 | 0.00 | 28 | 1017.3 |
| 20260502000024 | 52 | 328 | 3.5 | 9.6 | 0.00 | 0.00 | 0.00 | 30 | 1017.4 |
| 20260501234525 | 52 | 332 | 4.3 | 11.3 | 0.00 | 0.00 | 0.00 | 29 | 1017.3 |
| 20260501233023 | 53 | 18 | 4.3 | 8.7 | 0.00 | 0.00 | 0.00 | 29 | 1017.4 |
| 20260501231523 | 54 | 342 | 6.1 | 9.6 | 0.00 | 0.00 | 0.00 | 30 | 1017.4 |
| 20260501230022 | 54 | 59 | 0.9 | 7.0 | 0.00 | 0.00 | 0.00 | 32 | 1017.4 |
| 20260501224522 | 53 | 324 | 2.6 | 7.8 | 0.00 | 0.00 | 0.00 | 29 | 1017.4 |
| 20260501223021 | 52 | 338 | 1.7 | 7.0 | 0.00 | 0.00 | 0.00 | 29 | 1017.5 |
| 20260501221520 | 51 | 13 | 0.9 | 7.8 | 0.00 | 0.00 | 0.00 | 31 | 1017.6 |
| 20260501220020 | 52 | 317 | 6.1 | 9.6 | 0.00 | 0.00 | 0.00 | 32 | 1017.6 |
| 20260501214518 | 53 | 309 | 7.0 | 11.3 | 0.00 | 0.00 | 0.00 | 31 | 1017.7 |
| 20260501213018 | 53 | 314 | 2.6 | 11.3 | 0.00 | 0.00 | 0.00 | 30 | 1017.7 |
| 20260501211518 | 54 | 11 | 3.5 | 10.4 | 0.00 | 0.00 | 0.00 | 33 | 1017.7 |
| 20260501210021 | 52 | 344 | 1.7 | 9.6 | 0.00 | 0.00 | 0.00 | 34 | 1017.8 |
| 20260501204514 | 53 | 288 | 6.1 | 13.0 | 0.00 | 0.00 | 0.00 | 32 | 1017.9 |
| 20260501203013 | 52 | 11 | 1.7 | 10.4 | 0.00 | 0.00 | 0.00 | 33 | 1018.1 |
| 20260501201512 | 50 | 311 | 4.3 | 13.9 | 0.00 | 0.00 | 0.00 | 35 | 1018.3 |